www.pogodaiklimat.ru

Погода и климат >> Архив погоды >> Казахстан >> Караганда


АРХИВ ПОГОДЫ в Караганде

Время (UTC), дата Ветер
(напр.,м/с)
 
Видим.   Явления Облачность Т
(С)
Тd
(С)
f
(%)
Тe
(С)
Тes
(С)
Комфортность P
(гПа)
Po
(гПа)
Тmin
(С)
Tmax
(С)
R
(мм)
R24
(мм)
S
(см)
12 13.06 З 4 20 км 8/3 600 м
[Cb cap Ci fib]
+28.4 +7.9 28 +28 +30 жарко 1000.4 940.4
15 13.06 ЮЗ 2 20 км 8/0
[Ci fib]
+23.5 +12.4 50 +25 +25 комфорт 1002.3 941.3 +29.0
18 13.06 С 2 20 км ясно +17.9 +10.9 64 +18 +18 тепло 1003.6 941.4 +29.0
21 13.06 С 2 20 км 6/0
[Ac trans]
+15.5 +12.1 80 +15 +15 по сезону 1003.7 940.9
00 14.06 СВ 5 20 км 8/8 600 м
[Cb cap]
+12.0 +9.3 84 +10 +10 по сезону 1004.6 941.0
03 14.06 С 3 20 км 9/8 600 м
[Cb cap Ac trans]
+15.0 +11.0 77 +14 +15 прохладно 1005.2 942.3
06 14.06 СВ 3 20 км слаб. ливневой дождь 9/8 600 м
[Cb cap Ac As]
+15.8 +10.5 71 +15 +17 очень
холодно
1003.9 941.2 +12.0
09 14.06 СЗ 2 20 км {ливн. осадки} 8/6 1000 м
[Cu med, cong Ac As]
+19.9 +10.8 56 +22 +26 комфорт 1002.3 940.6
12 14.06 С 6 20 км в посл. час ливневой дождь 10/10 600 м
[Cb cap]
+16.5 +10.5 68 +15 +15 очень
холодно
1004.1 941.5
15 14.06 СВ 4 20 км {ливн. осадки} 9/9 600 м
[Cb cap]
+11.6 +8.0 79 +9 +9 очень
холодно
1006.1 942.4 +21.0
18 14.06 СВ 4 20 км {ливн. осадки} 4/0
[Ac trans]
+10.6 +8.0 84 +8 +8 очень
холодно
1006.5 942.5 +21.0 0.4
21 14.06 СВ 3 20 км 8/3 1000 м
[Sc Ac As]
+10.0 +7.6 85 +8 +8 холодно 1006.2 942.0
00 15.06 СВ 3 20 км 10/10 1000 м
[Sc]
+9.1 +6.8 86 +7 +7 холодно 1006.1 941.8
03 15.06 В 4 20 км 10/10 600 м
[Sc]
+10.0 +7.1 82 +7 +7 очень
холодно
1005.4 941.3
06 15.06 СВ 3 20 км 10/10 600 м
[Sc]
+11.0 +8.0 82 +9 +9 очень
холодно
1004.3 940.5 +9.1
09 15.06 СВ 4 20 км 10/10 600 м
[Sc]
+11.6 +8.0 79 +9 +9 очень
холодно
1002.9 939.3
12 15.06 СВ 2 20 км 10/10 600 м
[St]
+11.5 +8.1 80 +10 +10 очень
холодно
1003.8 940.1
15 15.06 С 2 20 км 10/10 600 м
[Cb cap]
+10.6 +8.4 86 +9 +9 очень
холодно
1004.3 940.4 +12.1
18 15.06 ЮЗ 1 10 км слаб. ливневой дождь 10/10 600 м
[Cb cap]
+8.5 +7.3 92 +8 +8 очень
холодно
1005.2 940.8 +12.1
21 15.06 З 3 4000 м слаб. ливневой дождь 10/10 300 м
[Cb cap]
+8.2 +7.2 93 +5 +5 очень
холодно
1005.3 940.8
00 16.06 З 2 20 км {ливн. осадки} 10/10 600 м
[Cb cap]
+7.6 +6.5 93 +5 +5 очень
холодно
1007.2 942.5
03 16.06 З 2 10 км слаб. ливневой дождь 10/10 300 м
[Cb cap]
+7.7 +6.4 91 +6 +6 очень
холодно
1009.5 944.6
06 16.06 ЮЗ 1 20 км в посл. час ливневой дождь 8/8 600 м
[Cb cap Ac trans]
+10.9 +6.4 74 +11 +15 очень
холодно
1010.2 946.0 +7.0 10
09 16.06 З 2 20 км 8/8 600 м
[Cb cap]
+12.1 +5.9 66 +11 +14 очень
холодно
1011.3 947.3
12 16.06 СВ 2 20 км 8/6 1000 м
[Cu med, cong Ci fib]
+13.9 +5.7 58 +14 +15 очень
холодно
1011.7 948.1
15 16.06 штиль 0 20 км 8/8 1000 м
[Sc diur, vesp Ci fib]
+13.6 +5.5 58 +13 +13 очень
холодно
1012.5 948.7 +14.9
18 16.06 штиль 0 20 км 5/0
[Ac trans]
+9.2 +6.5 83 +8 +8 очень
холодно
1013.8 949.0 +14.9 0.8
21 16.06 В 1 20 км 3/0
[Ac trans]
+7.0 +5.0 87 +6 +6 очень
холодно
1013.7 948.4
00 17.06 ЮВ 1 20 км 3/0
[Ac trans]
+7.3 +5.1 86 +6 +7 холодно 1012.5 947.3
03 17.06 Ю 2 20 км 5/0
[Cc]
+13.3 +5.2 58 +13 +20 холодно 1011.2 947.4
06 17.06 Ю 3 20 км 3/3 1000 м
[Cu hum]
+17.9 +1.7 34 +18 +28 холодно 1008.9 946.2 +5.5
09 17.06 З 4 20 км 9/4 1000 м
[Cu hum Ac cast Ci fib]
+20.4 +0.4 26 +21 +24 комфорт 1006.7 944.6
12 17.06 З 5 20 км 10/10 600 м
[Cb cap]
+19.5 +1.2 29 +19 +19 холодно 1005.6 943.4
15 17.06 ЮВ 4 20 км {ливн. осадки} 9/9 600 м
[Cb cap]
+15.1 +7.5 60 +14 +14 холодно 1003.7 940.8 +21.5
18 17.06 ЮВ 7 20 км {ливн. осадки} 8/8 600 м
[Cb cap]
+13.0 +9.2 78 +10 +10 холодно 1002.4 939.2 +21.5 0.4
21 17.06 ЮЗ 3 20 км 9/9 600 м
[Cb cap]
+13.0 +10.4 84 +12 +12 прохладно 1002.0 938.8
00 18.06 штиль 0 20 км 6/0
[Ac trans]
+11.1 +9.2 88 +10 +11 прохладно 1002.9 939.2
03 18.06 СЗ 3 20 км 10/10 600 м
[Sc]
+10.5 +7.7 83 +8 +8 очень
холодно
1005.3 941.4
06 18.06 СЗ 3 20 км 9/9 600 м
[Cb cap]
+13.2 +7.7 69 +12 +13 очень
холодно
1005.9 942.5 +10.3 1
09 18.06 СЗ 5 20 км 8/6 1000 м
[Cu Sc Ac cuf]
+16.5 +1.3 36 +16 +18 очень
холодно
1006.1 943.3
12 18.06 СЗ 5 20 км 6/6 1000 м
[Cu Sc]
+17.1 +0.3 32 +17 +18 очень
холодно
1007.3 944.5
15 18.06 З 1 20 км 8/0
[Ac trans Ci]
+14.6 +2.6 44 +15 +15 холодно 1008.9 945.5 +17.8
18 18.06 Ю 2 20 км 6/0
[Ac trans]
+11.2 +4.0 61 +10 +10 холодно 1009.7 945.6 +17.8
21 18.06 Ю 3 20 км 8/0
[Ac trans]
+11.3 +3.1 57 +10 +10 холодно 1008.9 944.8
00 19.06 Ю 3 20 км в посл. час ливневой дождь 9/6 600 м
[Cb cap Ac trans]
+12.2 +4.0 57 +11 +11 по сезону 1008.7 944.8
03 19.06 ЮЗ 3 10 км слаб. ливневой дождь 9/9 600 м
[Cb cap]
+13.9 +4.4 53 +13 +14 холодно 1009.2 945.7
06 19.06 СЗ 3 20 км {ливн. осадки} 3/3 1000 м
[Cu hum]
+19.0 +5.5 41 +20 +29 прохладно 1008.1 945.7 +9.9 0.0
09 19.06 СЗ 4 20 км 5/5 1000 м
[Cu hum]
+20.5 +2.9 31 +21 +26 комфорт 1008.5 946.3
12 19.06 З 3 20 км 6/6 1000 м
[Cu med, cong]
+20.2 +3.3 33 +21 +23 комфорт 1009.2 947.0
15 19.06 С 2 20 км 1/1 1000 м
[Sc diur, vesp]
+18.0 +3.4 38 +19 +19 прохладно 1011.1 948.3 +21.5
18 19.06 штиль 0 20 км 4/0
[Ci fib]
+12.0 +6.2 68 +12 +12 холодно 1013.7 949.5 +21.5 0.0
21 19.06 СВ 2 20 км ясно +9.8 +6.0 77 +8 +8 холодно 1014.5 949.7
00 20.06 СВ 1 20 км 3/0
[Ci fib]
+9.5 +6.4 81 +9 +9 прохладно 1015.4 950.6
03 20.06 В 3 20 км 4/0
[Ci fib]
+16.6 +7.2 54 +16 +22 прохладно 1014.4 951.1
06 20.06 В 3 20 км 6/4 1000 м
[Cu hum Ci fib]
+20.5 +5.2 37 +22 +29 комфорт 1013.6 951.2 +9.0

 

Местоположение метеостанции Караганда (Карагандинская область, Казахстан): широта 49.80 долгота 73.15 высота над уровнем моря 553 м.

В архиве по умолчанию представлена погода в Караганде за последнюю неделю. Архивные данные за месяц целиком и за предыдущие месяцы, начиная с января 2011 года, Вы можете получить, выбрав интересующий диапазон дат из раскрывающегося списка и нажав кнопку "Ввод!".


*Определитесь, кто Вы:
робот инопланетянин человек

Внимание! Время в таблицах - всемирное. Для получения местного времени необходимо прибавить поправку, которая равна 6 ч.

Смотрите также архив погоды в соседних городах и на ближайших метеорологических станциях:

Погода в Караганде-ШОС (Карагандинская область, Казахстан) (4 км)
Погода в Корнеевке (Карагандинская область, Казахстан) (11 км)
Погода в Темиртау (Карагандинская область, Казахстан) (33 км)
Погода в Топаре (Карагандинская область, Казахстан) (40 км)
Погода в Осакаровке (Карагандинская область, Казахстан) (94 км)
Погода в Молодежном (Карагандинская область, Казахстан) (107 км)
Погода в Бесобе (Карагандинская область, Казахстан) (108 км)
Погода в Жарыке (Карагандинская область, Казахстан) (108 км)
Погода в Кертинди (Карагандинская область, Казахстан) (114 км)
Погода в Киевке (Карагандинская область, Казахстан) (123 км)

Пояснения к столбцам:

Ветер - указаны скорость ветра в м/с - средняя за 10 мин, порывы в срок и между сроками (в фигурных скобках) и направление, откуда дует ветер: С - северный, СВ - северо-восточный, В - восточный, ЮВ - юго-восточный, Ю - южный, ЮЗ - юго-западный, З - западный, СЗ - северо-западный.
Видимость - горизонтальная дальность видимости в метрах или километрах. При видимости от 1 до 10 км при отсутствии осадков обычно наблюдается дымка, при ухудшении видимости до 1 км и менее - туман. В сухую погоду видимость может ухудшаться дымом, пылью или мглою.
Явления - указаны атмосферные явления, наблюдавшиеся в срок или в последний час перед сроком; фигурными скобками обозначены явления, наблюдавшиеся между сроками (за 1-3 часа до срока); квадратными скобками обозначены град или гололедные отложения с указанием их диаметра в мм.
Облачность - указаны через наклонную черту общая и нижняя облачность в баллах и высота нижней границы облаков в метрах; квадратными скобками обозначены формы облаков: Ci - перистые, Cs - перисто-слоистые, Cc - перисто-кучевые, Ac - высококучевые, As - высокослоистые, Sc - слоисто-кучевые, Ns - слоисто-дождевые, Cu - кучевые, Cb - кучево-дождевые. Подробнее классификацию облаков см. в Атласе облаков (PDF).
T - Температура воздуха - температура, измеренная на высоте 2 м над землей.
Td - Температура точки росы - температура, при понижении до которой содержащийся в воздухе водяной пар достигнет насыщения.
f - Относительная влажность воздуха - влажноcть воздуха, измеренная на высоте 2 м над землей.
Te - Эффективная температура - температура, которую ощущает одетый по сезону человек в тени. Характеристика душности погоды. При расчете учитывается влияние влажности воздуха и скорости ветра на теплоощущения человека.
Tes - Эффективная температура на солнце - температура, которую ощущает человек, с поправкой на солнечный нагрев. Характеристика знойности погоды. Зависит от высоты солнца над горизонтом, облачности и скорости ветра. Ночью, в пасмурную погоду, а также при ветре 12 м/с и более поправка равна нулю.
P - Атмосферное давление - приведенное к уровню моря атмосферное давление.
Po - Атмосферное давление - измеренное на уровне метеостанции атмосферное давление.
Tmin - Минимальная температура - минимум температуры воздуха на высоте 2 м над землей.
Tmax - Максимальная температура - максимум температуры воздуха на высоте 2 м над землей.
R - Количество осадков - Количество выпавших осадков за период времени, мм. При наведении курсора мыши на число - период времени, за который выпало указанное количество осадков.
R24 - Количество осадков - Количество выпавших осадков за 24 часа, мм.
S - Снежный покров - Высота снежного покрова, см. При наведении курсора мыши на число - состояние снежного покрова и степень покрытия местности в баллах.